Regional Weather Roundup
Issued by NWS

Home | Current Version | Previous Version | Graphics & Text | Print | Product List | Glossary Off
Versions: 1 2 3 4 5 6 7 8 9 10 11 12 13 14 15 16 17 18 19 20 21 22 23 24 25 26 27 28 29 30 31 32 33 34 35 36 37 38 39 40 41 42 43 44 45 46 47 48 49 50

000
ASUS43 KDTX 031001
RWRMI
MICHIGAN HOURLY REGIONAL WEATHER ROUNDUP
NATIONAL WEATHER SERVICE DETROIT/PONTIAC MI
600 AM EDT SUN MAY 03 2015

NOTE: "FAIR" INDICATES FEW OR NO CLOUDS BELOW 12,000 FEET WITH NO
SIGNIFICANT WEATHER AND/OR OBSTRUCTION TO VISIBILITY.

MIZ047>049-052>055-059>063-066>070-074>076-081>083-031100-
SOUTHEAST LOWER MICHIGAN

CITY           SKY/WX    TMP DP  RH WIND       PRES   REMARKS
ADRIAN         CLEAR     51  40  65 W5        30.04S
ALMA           CLEAR     53  37  56 SW7       29.98S
ANN ARBOR      CLEAR     41  39  93 CALM      30.02S
BAD AXE        CLEAR     52  35  51 SW6       29.98S
CARO           CLEAR     42  37  82 CALM      29.98R
DETROIT CITY   CLEAR     57  40  52 SW7       30.01S
DETROIT        PTCLDY    53  40  61 S6        30.03R
FLINT          CLEAR     56  38  50 SW6       30.00R
HILLSDALE      CLEAR     58  39  48 SW5       30.03S
HOWELL         CLEAR     53  38  56 SW3       30.01R

CITY           SKY/WX    TMP DP  RH WIND       PRES   REMARKS
JACKSON        CLEAR     55  40  56 SW9       30.02R
LAMBERTVILLE   CLEAR     50  41  71 CALM      30.04R
LANSING        CLEAR     53  39  59 SW5       30.00S
LAPEER         FAIR      43  41  92 CALM      30.00S
MASON          CLEAR     53  38  58 CALM      30.01R
MONROE         CLEAR     50  43  76 CALM      30.02R
PONTIAC        PTCLDY    48  42  80 CALM      30.01S
PORT HOPE        N/A     54  34  46 SW7       29.95S
PORT HURON     CLEAR     43  41  93 CALM      30.00S
TRI CITIES     CLOUDY    57  36  45 S7        29.98S
MIDLAND        CLOUDY    47  38  70 CALM      29.96S
TROY           CLEAR     55  40  56 SW7       30.03R
SAGINAW HB     CLOUDY    54  36  50 SW7       29.97S
$$
MIZ043>046-050>051-056>058-064>065-071>073-077>080-031100-
SOUTHWEST LOWER MICHIGAN

CITY           SKY/WX    TMP DP  RH WIND       PRES   REMARKS
BATTLE CREEK   CLEAR     54  39  57 S7        30.01S
BENTON HARBOR  PTCLDY    54  40  59 S5        29.99S
BIG RAPIDS     CLEAR     54  37  53 SE6       29.95S
COLDWATER      CLEAR     53  39  59 SW7       30.02S
FREMONT        FAIR      50  33  51 CALM      29.95S
HOLLAND        PTCLDY    59  40  49 SW10      29.99R
GRAND RAPIDS   PTCLDY    49  38  65 S6        29.98S
IONIA          FAIR      53  38  57 SW5       29.98S
KALAMAZOO      PTCLDY    53  42  66 S6        30.01R
LUDINGTON      CLEAR     61  41  47 SW7       29.93S
MARSHALL       CLEAR     55  39  56 S5        30.01S
MOUNT PLEASANT PTCLDY    56  35  45 SW6       29.96S
MUSKEGON       MOCLDY    54  38  54 SW9       29.96F
SOUTH HAVEN    PTCLDY    57  39  49 SW3       29.99S
$$
MIZ016>042-031100-
NORTHERN LOWER MICHIGAN

CITY           SKY/WX    TMP DP  RH WIND       PRES   REMARKS
ALPENA         MOCLDY    56  37  49 S6        29.91F
BEAVER ISLAND  CLEAR     56  39  53 SW12G17   29.87S
BELLAIRE       PTCLDY    48  39  70 SW3       29.91S
CADILLAC       CLEAR     40  35  84 CALM      29.94S
CHARLEVOIX     PTCLDY    59  37  43 S8        29.91S
FRANKFORT      CLEAR     62  35  37 S5        29.90S
GAYLORD        PTCLDY    55  35  47 SW9       29.92S
GRAYLING       MOCLDY    55  34  45 CALM      29.94S
HARBOR SPRINGS CLEAR     53  38  57 CALM      29.89F
HOUGHTON LAKE  CLEAR     55  37  50 SW6       29.95S
MANISTEE       CLEAR     45  36  70 CALM      29.93S
OSCODA         CLEAR     50  38  64 SW7       29.94S
PELLSTON       PTCLDY    60  37  42 CALM      29.88S
ROGERS CITY    PTCLDY    57  39  51 SW7       29.90S
TRAVERSE CITY  PTCLDY    59  36  42 S6        29.89S
$$
MIZ007>008-015-031100-
EASTERN UPPER MICHIGAN

CITY           SKY/WX    TMP DP  RH WIND       PRES   REMARKS
KINROSS        PTCLDY    45  39  81 S6        29.86S
MACKINAC ISLAN PTCLDY    49  39  68 SW7       29.87S
NEWBERRY       PTCLDY    46  36  69 S7        29.83F
S. S. MARIE    PTCLDY    45  38  76 E3        29.86F
MUNISING         N/A     55  41  59 SW8       29.79F
$$
MIZ004>006-011>014-085-031100-
CENTRAL UPPER MICHIGAN

CITY           SKY/WX    TMP DP  RH WIND       PRES   REMARKS
MANISTIQUE     CLEAR     39  36  87 S7        29.84S WCI  34
ESCANABA       PTCLDY    39  36  87 CALM      29.83S
MENOMINEE      CLEAR     55  43  62 SW8       29.84F
SAWYER-GWINN   PTCLDY    49  41  73 S7        29.80F
$$
MIZ001>003-009>011-084-031100-
WESTERN UPPER MICHIGAN

CITY           SKY/WX    TMP DP  RH WIND       PRES   REMARKS
IRON MOUNTAIN  PTCLDY    56  46  69 SE3       29.81S
HOUGHTON       CLOUDY    58  45  62 SW6       29.72F
COPPER HARBOR    N/A     60  43  53 W9        29.69F
IRONWOOD       PTCLDY    61  50  67 SW12G18   29.71F
$$

ABBREVIATIONS USED IN REMARKS
   TC - TEMPERATURE IN CELSIUS
  WCI - WIND CHILL INDEX
   HX - HEAT INDEX
  VSB - VISIBILITY



USA.gov is the U.S. government's official web portal to all federal, state and local government web resources and services.